Flag for Poland Weather past 2 weeks in Tarnów, Poland

Now
42 °F

Quite cool.


Feels Like: 41 °F
Forecast: 36 / 43 °F
Wind: 3 mph from Southwest

Location: Tarnow

Current Time: Mar 31, 2015 at 11:23:49 AM

Latest Report: Mar 31, 2015 at 10:00 AM


Visibility: 25 mi

Pressure: 29.61 "Hg

Humidity: 59%

Dew point: 29 °F

Location of TarnówLocation

Historic Weather in Tarnów — Graph

°F

Tarnów temperature yesterday

Maximum temperature yesterday: 57 °F (at 2:00 PM)
Minimum temperature yesterday: 42 °F (at 8:00 PM)
Average temperature yesterday: 47 °F

Past Weeks' High & Low Weather Summary

 TemperatureHumidityPressure
High65 °F (Mar 26, 12:00 PM)97% (Mar 20, 7:00 AM)30.66 "Hg (Mar 20, 7:00 AM)
Low22 °F (Mar 23, 2:00 AM)24% (Mar 24, 2:00 PM)29.32 "Hg (Mar 30, 7:00 AM)
Average45 °F63%30.07 "Hg
* Reported Mar 16 9:00 AM — Mar 31 10:00 AM, Tarnów, Weather by CustomWeather, © 2015

Note: Actual official high and low records may vary slightly from our data, if they occured in-between our weather recording intervals... More about our weather records

Advertising

Tarnów weather history for previous 24 hours

 ConditionsComfort  
Time TempWeatherWind HumidityBarometerVisibility
10:00 AM
Tue, Mar 31
42 °FQuite cool.3 mph59%29.61 "Hg25 mi
9:00 AM42 °FQuite cool.3 mph54%29.64 "Hg22 mi
8:00 AM41 °FQuite cool.3 mph63%29.67 "Hg18 mi
7:00 AM40 °FQuite cool.2 mph68%29.70 "Hg16 mi
6:00 AM40 °FQuite cool.3 mph66%29.71 "Hg22 mi
4:00 AM41 °FQuite cool.3 mph67%29.72 "Hg17 mi
3:00 AM41 °FQuite cool.3 mph67%29.71 "Hg19 mi
2:00 AM41 °FQuite cool.3 mph74%29.69 "Hg13 mi
1:00 AM42 °FLight rain. Overcast.5 mph72%29.67 "Hg9 mi
12:00 AM42 °FQuite cool.3 mph74%29.65 "Hg15 mi
11:00 PM
Mon, Mar 30
42 °FQuite cool.3 mph71%29.62 "Hg16 mi
10:00 PM42 °FQuite cool.3 mph73%29.60 "Hg13 mi
9:00 PM42 °FQuite cool.3 mph70%29.59 "Hg22 mi
8:00 PM42 °FQuite cool.2 mph73%29.54 "Hg9 mi
7:00 PM42 °FQuite cool.3 mph70%29.50 "Hg22 mi
6:00 PM44 °FQuite cool.3 mph75%29.47 "Hg15 mi
5:00 PM42 °FQuite cool.3 mph85%29.47 "Hg19 mi
4:00 PM43 °FLots of rain. Cloudy.5 mph87%29.41 "Hg4 mi
3:00 PM55 °FRain showers. Cloudy.2 mph39%29.32 "Hg28 mi
2:00 PM57 °FRefreshingly cool.3 mph38%29.32 "Hg25 mi
1:00 PM54 °FCool.5 mph47%29.35 "Hg31 mi
12:00 PM54 °FCool.3 mph52%29.35 "Hg25 mi
11:00 AM52 °FCool.3 mph63%29.38 "Hg25 mi
Weather by CustomWeather, © 2015

See weather overviewHow to use our weather pages